Regional Weather Roundup
Issued by NWS

Home | Current Version | Previous Version | Text Only | Print | Product List | Glossary On
Versions: 1 2 3 4 5 6 7 8 9 10 11 12 13 14 15 16 17 18 19 20 21 22 23 24 25 26 27 28 29 30 31 32 33 34 35 36 37 38 39 40 41 42 43 44 45 46 47 48 49 50
000
ASUS45 KPSR 280510
RWRAZ

ARIZONA REGIONAL HOURLY WEATHER ROUNDUP
NATIONAL WEATHER SERVICE TUCSON AZ
1000 PM MST TUE JUN 27 2017

NOTE: FAIR INDICATES FEW OR NO CLOUDS BELOW 12,000 FEET WITH NO
SIGNIFICANT WEATHER AND/OR OBSTRUCTIONS TO VISIBILITY.

AZZ001>003-036-280600-
NORTHWEST ARIZONA

CITY           SKY/WX    TMP DP  RH WIND       PRES   REMARKS
BULLHEAD CITY  CLEAR    104   3   2 S8G15     29.61R
KINGMAN        CLEAR     80  14   8 S10       29.86R
$$

AZZ004>008-015-016-018-280600-
NORTH CENTRAL ARIZONA

CITY           SKY/WX    TMP DP  RH WIND       PRES   REMARKS
GRAND CANYON   CLEAR     66  16  14 SW7       30.13R
PRESCOTT       CLEAR     75  10   8 SW13      30.03R
FLAGSTAFF      CLEAR     67   4   8 SW9       30.17R
PAYSON         CLOUDY    75  16  10 CALM      30.08R
PAGE           CLEAR     89  19   7 W6        29.86R
$$

AZZ009>014-017-280600-
NORTHEAST ARIZONA

CITY           SKY/WX    TMP DP  RH WIND       PRES   REMARKS
WINSLOW        CLEAR     76  19  11 SW15      29.99R
SAINT JOHNS    MOCLDY    72  14  11 SW12      30.08R
WINDOW ROCK    CLEAR     69  14  12 CALM      30.12R
SHOW LOW         N/A    N/A N/A N/A MISG        N/A
$$

AZZ023-280600-
GREATER PHOENIX AREA

CITY           SKY/WX    TMP DP  RH WIND       PRES   REMARKS
PHOENIX        CLEAR     97  30   9 SW5       29.68R
LUKE AFB       CLEAR     92  33  12 CALM      29.68R
DEER VALLEY    CLEAR     93  30  10 SW5       29.71R
SCOTTSDALE     CLEAR     97  28   8 CALM      29.74R
MESA-GATEWAY   CLEAR     91  32  12 SW8       29.73R
$$

AZZ027-028-280600-
SOUTHWEST MARICOPA COUNTY AND PINAL COUNTY

CITY           SKY/WX    TMP DP  RH WIND       PRES   REMARKS
CASA GRANDE    CLEAR     90  35  14 W3        29.75R
$$

AZZ503-504-507>509-280600-
SOUTHEAST ARIZONA

CITY           SKY/WX    TMP DP  RH WIND       PRES   REMARKS
TUCSON         CLEAR     91  36  14 SW5       29.89R
DAVIS-MONTHAN  CLEAR     91  34  13 W3        29.88R
NOGALES        CLEAR     77  36  22 E5        30.01R
SIERRA VISTA   CLEAR     83  31  15 W12       30.07R
DOUGLAS        PTCLDY    82  49  31 S13       30.02R
SAFFORD        CLEAR     84  21  10 NW8       29.88R
$$

AZZ020-021-025-026-031-280600-
SOUTHWEST ARIZONA

CITY           SKY/WX    TMP DP  RH WIND       PRES   REMARKS
YUMA           CLEAR     91  56  30 SW5       29.68R
$$

CAZ031-033-041-043-047-048-061-280600-
SOUTHERN CALIFORNIA

CITY           SKY/WX    TMP DP  RH WIND       PRES   REMARKS
DOWNTOWN L.A.  NOT AVBL
L.A. AIRPORT   CLEAR     66  59  78 SW6       29.86R
SAN DIEGO      PTCLDY    66  62  87 W6        29.89R
BURBANK        CLEAR     72  53  51 SE9       29.86R
ONTARIO        CLEAR     75  50  41 W9        29.87R
RIVERSIDE      CLEAR     74  51  44 W6        29.87R
PALM SPRINGS   CLEAR     97  25   7 NW14      29.67R
EL CENTRO NAS  CLEAR     92  16   6 W20       29.68R
IMPERIAL       CLEAR     90  31  12 W15       29.65R
BLYTHE         CLEAR     95  28   9 S8        29.63R
NEEDLES        CLEAR    102   1   2 W13       29.64R
$$

NVZ020-UTZ003-280600-
SOUTHERN NEVADA-UTAH

CITY           SKY/WX    TMP DP  RH WIND       PRES   REMARKS
LAS VEGAS      CLEAR     97  14   5 SW18G28   29.70R
SALT LAKE CITY CLEAR     75  36  24 S8        29.85S
$$

NMZ009-TXZ055-280600-
NEW MEXICO-WEST TEXAS

CITY           SKY/WX    TMP DP  RH WIND       PRES   REMARKS
ALBUQUERQUE    PTCLDY    77  43  29 S12       30.00R
EL PASO        PTCLDY    87  51  28 N3        29.97R
$$


........................KEY........................
SKY/WX - SKY CONDITION/WEATHER
TMP    - TEMPERATURE IN FAHRENHEIT
DP     - DEWPOINT IN FAHRENHEIT
RH     - RELATIVE HUMIDITY IN PERCENT
WIND   - DIRECTION AND SPEED IN MILES PER HOUR (MPH)
VRB    - VARIABLE WIND DIRECTION
PRES   - MEAN SEA LEVEL PRESSURE IN INCHES OF MERCURY
         F - FALLING PRESSURE   R - RISING PRESSURE
         S - STEADY PRESSURE
VSB    - VISIBILITY IN MILES
HX     - HEAT INDEX IN FAHRENHEIT
WCI    - WIND CHILL INDEX IN FAHRENHEIT
TC     - TEMPERATURE IN CELSIUS WHICH IS ALSO KNOWN AS
         TEMPERATURE IN CENTIGRADE
AFB    - AIR FORCE BASE
         LUKE AFB IS LUKE AIR FORCE BASE
         DAVIS-MONTHAN IS DAVIS-MONTHAN AIR FORCE BASE
NAS    - NAVAL AIR STATION
         EL CENTRO NAS IS EL CENTRO NAVAL AIR STATION
N/A    - NOT AVAILABLE





USA.gov is the U.S. government's official web portal to all federal, state and local government web resources and services.